Theta_e
344 344 342 341 340 335 332 330 330 328 326 325 326 328 329 328 328 328 329 327 324 326 325 326 326 326 326 325 326 329 329 331
345 345 344 342 339 336 335 333 331 330 329 328 327 327 328 329 328 328 329 329 325 325 324 324 324 325 325 325 325 326 330 329
344 345 343 342 341 337 336 335 334 331 330 330 331 330 328 327 328 328 328 330 328 325 324 323 323 324 325 325 323 323 330 329
338 340 341 342 342 339 337 336 335 335 332 329 328 331 332 330 329 329 329 329 330 327 325 324 323 323 324 325 321 323 329 330
330 332 335 339 341 339 339 340 337 336 335 334 331 328 331 333 332 330 330 330 330 330 326 325 324 323 324 324 322 323 326 327
324 324 329 333 335 336 337 339 337 339 341 338 337 333 330 330 332 332 331 330 330 330 329 326 325 324 324 324 323 323 325 329
314 314 315 318 321 324 331 334 336 336 336 338 339 339 337 332 331 331 332 332 330 330 330 328 327 325 324 324 324 323 324 329
308 309 309 308 308 310 314 322 324 333 335 335 336 337 338 339 336 332 332 332 331 331 331 331 329 327 325 324 324 324 325 328
306 305 305 306 306 306 306 308 313 321 327 331 332 334 336 337 337 337 337 331 332 333 336 335 335 334 328 325 326 329 326 325
304 304 304 305 305 305 306 306 306 307 315 324 327 328 331 333 334 336 335 336 333 331 332 337 337 335 335 329 326 327 328 328
303 303 303 303 303 303 304 304 305 306 306 308 317 320 323 329 331 335 336 336 336 335 333 332 337 337 335 333 328 327 328 329
302 302 302 302 302 302 302 302 303 303 304 305 306 307 310 313 323 330 334 334 335 336 336 335 334 333 334 334 331 330 328 331
302 301 301 301 301 301 301 301 301 302 302 303 304 305 305 306 308 316 325 328 331 330 333 334 334 334 333 331 331 332 331 330
301 301 301 301 301 301 301 301 301 301 302 302 303 303 304 305 305 307 309 317 322 327 328 331 335 333 332 331 330 329 330 331
300 300 300 300 300 300 301 301 301 301 301 302 302 302 303 304 304 304 306 309 313 316 322 327 330 334 332 331 331 330 329 329
300 300 299 299 299 299 299 299 299 300 300 301 302 302 303 303 303 303 304 307 309 310 314 321 325 330 334 333 331 329 329 330
300 299 298 298 298 297 297 297 298 299 300 301 301 301 302 302 302 302 303 304 307 309 310 312 316 325 330 333 331 332 330 330
299 297 296 296 295 295 295 296 297 298 299 299 300 299 299 300 300 301 301 302 304 306 309 311 312 315 328 332 332 331 328 328
297 295 295 295 295 295 295 295 296 296 295 295 296 296 296 297 298 300 300 302 304 306 309 311 312 313 319 331 331 329 325 323
295 294 294 293 294 294 294 294 294 295 296 296 295 293 293 294 295 298 300 301 303 305 307 311 313 315 315 326 330 327 324 327
Wind_Speed
1 2 4 8 11 12 12 11 10 10 10 12 13 13 13 12 11 11 11 10 9 9 8 8 9 10 9 9 8 7 4 5
2 3 5 8 10 12 14 14 13 12 12 13 15 16 16 15 14 14 13 13 12 11 10 9 10 10 10 10 10 9 7 6
3 5 7 8 9 11 13 13 15 16 15 15 16 18 18 18 17 17 16 15 15 14 13 11 11 11 12 12 11 11 10 8
5 5 8 9 10 11 12 14 15 16 18 18 19 19 20 20 20 20 19 19 19 18 17 15 14 13 13 14 13 13 13 11
15 10 7 8 10 13 14 15 17 17 18 20 21 22 23 23 24 24 23 22 23 22 21 19 17 16 16 17 16 16 15 13
15 15 11 11 12 15 15 18 18 18 19 20 21 25 26 28 28 27 27 26 26 26 25 23 20 19 18 20 20 19 18 15
17 18 17 15 17 16 18 20 19 20 20 19 23 22 26 29 31 31 31 30 31 29 28 27 25 23 22 23 25 23 22 19
20 20 22 22 19 18 17 17 17 16 20 22 23 24 27 28 29 33 35 35 34 32 31 30 29 27 26 25 27 26 25 23
24 25 23 22 22 22 21 20 19 21 21 23 26 26 27 22 31 32 33 37 37 36 33 31 32 31 32 30 30 29 28 28
23 23 24 24 24 24 25 23 23 20 21 24 25 26 31 27 26 28 35 38 38 39 39 38 36 35 35 36 35 37 34 32
21 22 23 24 23 22 22 25 25 23 22 24 28 29 29 33 30 28 29 27 39 40 43 42 41 40 39 38 37 39 41 37
20 22 23 24 25 25 24 24 25 27 27 28 26 29 31 32 33 34 36 29 22 38 43 44 45 44 44 41 38 39 43 43
23 26 29 31 33 35 34 32 31 30 31 29 30 33 33 33 34 33 35 37 37 30 30 43 48 47 45 44 43 41 44 46
26 27 29 32 35 36 37 37 35 32 32 33 33 33 34 37 35 35 33 36 39 39 42 33 45 48 48 43 34 44 49 50
31 33 33 33 33 33 34 36 37 37 36 35 34 36 37 38 40 38 36 35 38 37 36 43 38 46 52 43 25 28 35 46
32 34 35 33 33 32 33 35 39 40 40 39 38 36 37 37 40 41 40 36 39 39 41 35 37 44 46 50 52 42 28 22
32 34 35 34 33 32 32 32 32 34 36 40 41 40 39 38 38 41 42 40 38 39 40 40 41 40 47 36 41 43 52 37
35 34 32 32 31 30 30 31 33 35 36 37 40 42 41 39 37 39 41 41 41 40 40 41 41 42 42 44 43 32 20 33
31 30 30 31 30 30 30 31 32 33 35 38 42 43 42 41 39 35 39 38 39 40 40 41 41 42 41 44 45 43 38 34
27 28 29 30 30 31 32 32 32 33 34 37 40 40 41 40 38 34 36 35 36 40 43 43 40 39 41 40 43 39 45 43
Wind_Direction
163 241 267 287 293 273 262 253 244 242 243 244 240 237 236 237 235 232 230 231 234 231 222 210 211 224 224 228 217 210 250 207
186 250 260 272 268 265 265 261 257 249 243 245 246 243 242 242 241 239 238 239 241 237 231 221 219 229 229 229 224 213 212 199
304 293 311 317 299 276 265 266 271 268 260 249 243 247 248 246 244 243 242 243 244 244 237 229 224 227 231 230 226 216 212 209
39 282 288 307 316 305 280 272 271 274 278 271 260 251 251 254 252 247 245 243 244 245 243 235 228 228 230 229 223 221 217 212
43 35 342 317 311 310 312 299 285 280 278 280 280 270 261 253 252 250 247 246 246 246 244 240 235 231 228 233 227 224 220 224
44 27 14 339 334 309 310 293 297 288 287 280 278 282 274 267 261 257 254 250 248 249 248 247 242 236 231 232 232 227 222 225
23 14 12 360 346 341 320 309 299 296 296 290 289 281 289 280 271 266 261 258 255 252 251 249 245 241 236 233 233 232 225 227
26 10 358 350 348 338 334 325 325 301 286 289 294 290 283 282 283 273 267 262 258 255 253 254 253 247 243 238 233 232 229 229
20 17 14 4 356 348 341 330 316 313 306 292 282 277 272 285 277 272 275 268 263 260 257 252 253 252 247 239 233 233 234 230
18 13 4 4 5 360 351 344 330 315 299 295 295 293 282 281 265 275 273 273 268 262 259 256 254 253 252 244 236 235 237 234
16 8 4 359 356 353 351 344 340 333 323 301 294 295 293 285 281 264 264 275 272 264 259 258 259 254 253 250 243 238 236 236
12 5 358 355 349 346 344 342 336 333 332 327 316 307 300 299 289 277 265 269 274 274 266 261 259 258 258 257 247 241 237 237
5 359 356 352 349 348 349 349 343 334 329 328 322 318 315 302 297 291 278 275 268 272 282 270 264 258 258 257 252 245 239 238
6 1 356 352 348 346 344 340 338 337 331 326 324 321 318 316 309 302 293 284 276 268 271 280 265 264 254 252 251 249 244 237
4 358 354 347 343 339 335 332 331 329 327 326 323 322 321 319 314 308 298 289 282 283 274 274 280 262 260 245 242 243 247 246
360 355 351 347 344 340 339 336 334 333 331 327 325 322 321 319 314 310 305 296 289 281 276 267 274 272 249 253 245 244 242 240
353 350 347 346 344 342 339 336 333 328 326 325 327 325 323 322 317 310 306 302 297 291 281 275 266 265 268 231 238 246 244 239
350 350 351 349 348 348 344 341 336 331 329 327 326 326 326 323 319 312 308 303 305 301 292 280 271 264 265 259 243 213 230 251
349 352 354 353 350 348 345 341 337 334 333 330 330 330 328 326 320 312 310 308 306 302 298 290 277 270 261 263 251 247 257 263
351 353 353 353 352 349 346 343 339 336 333 331 330 330 328 326 321 313 310 308 309 299 298 291 290 271 261 260 252 255 246 248